[[{"header":{"parameterUnit":"m.s-1","parameterCategory":1,"la1":30.2992,"la2":30.254,"lo1":-89.0895,"lo2":-89.0443,"dy":0.0025,"dx":0.0025,"nx":19,"ny":19,"refTime":"2026-04-13T09:00:00:Z","depth":0,"parameterNumber":2,"parameterNumberName":"U-component_of_WINDS"},"data":[0,0,0,-2.1657,-2.1658,-2.1673,-2.1673,-2.1705,-2.1706,0,0,0,0,0,0,0,0,0,0,0,-2.1658,-2.1658,-2.1657,-2.1658,-2.1673,-2.1673,-2.1705,-2.1706,0,0,0,0,0,0,0,0,0,0,0,-2.1658,-2.1658,-2.1659,-2.1658,-2.1673,-2.1673,-2.1705,-2.1689,0,0,0,0,0,0,0,0,0,0,-2.1672,-2.1678,-2.1658,-2.1659,-2.1658,-2.1673,-2.1673,-2.1688,-2.169,-2.1703,0,-2.1714,0,-2.171,-2.1708,-2.1708,0,0,0,-2.1654,-2.1676,-2.1676,-2.1659,-2.1658,-2.1673,-2.1665,-2.1689,-2.1691,-2.1705,-2.1714,-2.1715,-2.1711,-2.1709,-2.1709,-2.1791,-2.1791,0,0,-2.1653,-2.1664,-2.1674,-2.1677,-2.1674,-2.1665,-2.1666,-2.169,-2.1701,-2.1714,-2.1716,-2.1711,-2.1709,-2.1709,-2.179,-2.1791,0,0,0,-2.1653,-2.1664,-2.1662,-2.1676,-2.1678,-2.1665,-2.1666,-2.17,-2.1699,-2.1716,-2.1712,-2.1709,-2.171,-2.179,-2.1791,-2.1829,0,0,0,-2.1652,-2.1664,-2.1662,-2.1669,-2.1678,-2.1689,-2.1676,-2.1697,-2.1699,-2.1711,-2.1709,-2.171,-2.1789,-2.179,-2.1827,-2.1846,0,0,0,-2.1655,-2.1664,-2.1668,-2.1669,-2.1676,-2.1688,-2.1688,-2.1697,-2.1697,-2.1708,-2.171,-2.1789,-2.179,-2.1825,-2.1842,-2.1871,0,0,0,-2.1662,-2.1702,-2.1669,-2.1713,-2.1676,-2.1712,-2.1688,-2.1714,-2.1728,-2.1709,-2.1789,-2.179,-2.1824,-2.184,-2.1868,-2.1897,-2.1909,0,0,-2.1719,-2.1709,-2.1734,-2.1705,-2.1749,-2.1709,-2.1759,-2.1762,-2.1753,-2.1779,-2.1781,-2.1828,-2.1842,-2.187,-2.1978,-2.1988,0,0,0,-2.1756,-2.1774,-2.1784,-2.1798,-2.1801,-2.1806,-2.1799,-2.1801,-2.1822,-2.1769,-2.1846,-2.1854,-2.187,-2.1883,-2.1892,-2.1905,-2.1797,-2.1797,-2.1797,-2.1853,-2.184,-2.1881,-2.187,-2.1884,-2.1878,-2.1889,-2.189,-2.1872,-2.1891,-2.1898,-2.1965,-2.1981,-2.1987,-2.2002,-2.1912,-2.1913,-2.1913,-2.1913,-2.1936,-2.1959,-2.1936,-2.1967,-2.1954,-2.198,-2.1977,-2.1964,-2.1988,-2.1958,-2.1972,-2.194,-2.1999,-2.2011,-2.1916,-2.1915,-2.1915,-2.1914,-2.1914,-2.1997,-2.2006,-2.2007,-2.2027,-2.2045,-2.2033,-2.2057,-2.2044,-2.2032,-2.2046,-2.2053,-2.2052,-2.205,-2.205,-2.2051,-2.2051,-2.2051,-2.2051,-2.2051,-2.206,-2.206,-2.2081,-2.209,-2.2098,-2.2107,-2.2103,-2.2111,-2.2117,-2.2106,-2.2106,-2.2087,-2.2007,-2.1987,-2.2055,-2.2054,-2.2054,-2.2053,-2.2053,-2.2148,-2.2127,-2.2159,-2.2168,-2.2177,-2.2196,-2.218,-2.2198,-2.2203,-2.2216,-2.2195,-2.2137,-2.2127,-2.212,-2.2103,-2.2197,-2.2197,-2.2197,-2.2197,-2.22,-2.2194,-2.2225,-2.224,-2.2252,-2.2241,-2.2281,-2.228,-2.2275,-2.2277,-2.2262,-2.2239,-2.2233,-2.2226,-2.2217,-2.2201,-2.2318,-2.2318,-2.2318,-2.2254,-2.2249,-2.2284,-2.2278,-2.2285,-2.2292,-2.2329,-2.2348,-2.2338,-2.2322,-2.228,-2.2274,-2.2237,-2.2226,-2.2208,-2.2194,-2.2165,0,0]},{"header":{"parameterUnit":"m.s-1","parameterCategory":1,"la1":30.2992,"la2":30.254,"lo1":-89.0895,"lo2":-89.0443,"dy":0.0025,"dx":0.0025,"nx":19,"ny":19,"refTime":"2026-04-13T09:00:00:Z","depth":0,"parameterNumber":3,"parameterNumberName":"V-component_of_WINDS"},"data":[0,0,0,3.1567,3.1567,3.1555,3.1555,3.1544,3.1544,0,0,0,0,0,0,0,0,0,0,0,3.1573,3.1573,3.1567,3.1567,3.1555,3.1555,3.1544,3.1544,0,0,0,0,0,0,0,0,0,0,0,3.1573,3.1573,3.1573,3.1567,3.1556,3.1555,3.1544,3.1551,0,0,0,0,0,0,0,0,0,0,3.1562,3.157,3.1573,3.1573,3.1567,3.1556,3.1555,3.1552,3.1551,3.1551,0,3.1552,0,3.1548,3.1543,3.1543,0,0,0,3.1565,3.1571,3.1565,3.1573,3.1567,3.1556,3.156,3.1551,3.155,3.155,3.1552,3.1551,3.1548,3.1543,3.1543,3.1551,3.1551,0,0,3.1565,3.1572,3.1566,3.1565,3.1568,3.156,3.156,3.1551,3.1553,3.1551,3.1551,3.1547,3.1543,3.1543,3.1551,3.1551,0,0,0,3.1569,3.1573,3.1568,3.1565,3.1563,3.156,3.1559,3.1553,3.1551,3.155,3.1547,3.1543,3.1543,3.1551,3.1551,3.1564,0,0,0,3.1569,3.1575,3.1568,3.1572,3.1564,3.1558,3.1562,3.1552,3.155,3.1547,3.1543,3.1543,3.1551,3.1551,3.1564,3.1569,0,0,0,3.1573,3.1575,3.1574,3.1572,3.1568,3.1558,3.1555,3.1551,3.1548,3.1543,3.1543,3.1551,3.1551,3.1563,3.1568,3.1573,0,0,0,3.1579,3.1586,3.1575,3.1581,3.1568,3.1567,3.1555,3.1554,3.1551,3.1543,3.1551,3.1551,3.1563,3.1567,3.1572,3.1578,3.1581,0,0,3.1591,3.1587,3.1591,3.158,3.1583,3.1568,3.1573,3.1563,3.1556,3.1553,3.1553,3.1564,3.1568,3.1573,3.1597,3.16,0,0,0,3.1597,3.1599,3.1599,3.1597,3.1591,3.1586,3.1575,3.1572,3.1569,3.1556,3.1567,3.1569,3.1572,3.1574,3.1576,3.1578,3.1553,3.1553,3.1553,3.1623,3.1615,3.162,3.161,3.1609,3.1598,3.1596,3.159,3.1581,3.1584,3.1582,3.1599,3.1602,3.1603,3.1605,3.1585,3.1585,3.1586,3.1586,3.164,3.1642,3.1631,3.1632,3.1623,3.1624,3.1615,3.1609,3.1608,3.1599,3.1601,3.1591,3.1606,3.1607,3.1586,3.1586,3.1586,3.1586,3.1586,3.1655,3.1655,3.1651,3.1648,3.1647,3.1637,3.1637,3.1629,3.1621,3.1623,3.162,3.162,3.1618,3.1622,3.1622,3.1623,3.1623,3.1623,3.1623,3.1672,3.1668,3.1669,3.1664,3.1662,3.1658,3.1649,3.1647,3.1642,3.1636,3.1636,3.1627,3.161,3.1605,3.1623,3.1623,3.1623,3.1623,3.1623,3.1691,3.1686,3.1687,3.1685,3.1679,3.1678,3.1668,3.1664,3.1661,3.1661,3.1652,3.1641,3.1637,3.1635,3.1631,3.1655,3.1655,3.1655,3.1655,3.1703,3.1701,3.1701,3.1698,3.1695,3.1687,3.1688,3.1681,3.1673,3.1671,3.1666,3.1661,3.166,3.1655,3.1653,3.1649,3.1677,3.1677,3.1677,3.1714,3.1711,3.1714,3.1707,3.1701,3.1697,3.1698,3.1695,3.1685,3.1678,3.1668,3.1668,3.1659,3.1656,3.1648,3.1645,3.1638,0,0]}]]